Regional Weather Roundup
Issued by NWS

Home | Current Version | Previous Version | Graphics & Text | Print | Product List | Glossary On
Versions: 1 2 3 4 5 6 7 8 9 10 11 12 13 14 15 16 17 18 19 20 21 22 23 24 25 26 27 28 29 30 31 32 33 34 35 36 37 38 39 40 41 42 43 44 45 46 47 48 49 50
000
ASUS43 KLOT 231110
RWRIL

ILLINOIS REGIONAL WEATHER ROUNDUP
NATIONAL WEATHER SERVICE CHICAGO/ROMEOVILLE IL
600 AM CDT WED JUL 23 2014

NOTE: "FAIR" INDICATES FEW OR NO CLOUDS BELOW 12,000 FEET WITH NO
SIGNIFICANT WEATHER AND/OR OBSTRUCTIONS TO VISIBILITY.

* THESE STATIONS ARE NOT UNDER NWS QUALITY CONTROL. THEY ALSO MAY NOT
  REPORT WEATHER SUCH AS PRECIPITATION OR FOG.

ILZ001-002-007-009-015-016-024-231200-
NORTHWEST ILLINOIS

CITY           SKY/WX    TMP DP  RH WIND       PRES   REMARKS
MOLINE         CLEAR     70  63  78 NE7       30.11R
STERLING*      CLEAR     66  61  82 E13       30.12R
SAVANNA*       CLEAR     66  59  79 N7        30.13R
$$

ILZ003-004-008-010-011-017-018-231200-
NORTH CENTRAL ILLINOIS

CITY           SKY/WX    TMP DP  RH WIND       PRES   REMARKS
ROCKFORD       CLEAR     64  56  75 NE12      30.15R
FREEPORT*      PTCLDY    61  59  92 N6        30.16R
ROCHELLE*      CLEAR     62  57  82 N10       30.13R
DE KALB*       CLEAR     60  55  84 N9        30.13R
PERU*          CLEAR     66  61  86 NE12      30.10R
$$

ILZ005-006-012>014-019>023-231200-
NORTHEAST ILLINOIS

CITY           SKY/WX    TMP DP  RH WIND       PRES   REMARKS
CHICAGO-OHARE  PTCLDY    65  52  62 N15       30.10R
CHICAGO-MIDWAY MOCLDY    67  58  72 N13       30.09R
AURORA         CLEAR     63  55  75 N7        30.10R
LANSING*       PTCLDY    64  56  75 N16G24    30.08R
JOLIET*        CLEAR     64  54  69 N9        30.09R
WAUKEGAN       CLEAR     61  53  75 N8G17     30.12R
DUPAGE AIRPORT CLEAR     62  55  77 N12       30.10R
KANKAKEE*      CLEAR     64  60  85 N7        30.07R
WHEELING       CLEAR     64  54  69 N10G21    30.12R
MORRIS*        MOCLDY    64  59  82 CALM      30.09R
ROMEOVILLE*    CLEAR     64  54  71 NE18      30.09R
NORTHERLY ISL    N/A     63  57  81 N20         N/A
$$

LMZ740>746-231200-
SOUTHERN LAKE MICHIGAN

STATION/POSITION SKY/WX   TEMP    WIND        PRES    VSBY  WAVE
                          AIR SEA DIR/SP/G                  HT/PER
                          (F)     (DEG/KT/KT) (MB)    (MI)  (FT/S)
SOUTHERN BUOY              61 60  350/ 21/ 25 1018.6R         5/ 6
WAUKEGAN HARBOR            62      10/ 19/ 26 1020.7R
HARRISON CRIB              65     360/ 26/ 29   N/A
BURNHAM HARBOR             63     350/ 16/ 19   N/A
CALUMET HARBOR             65     350/ 14/ 19 1017.6R
MICHIGAN CITY              66     360/ 25/ 28   N/A
$$

ILZ025>027-034>036-040-047-049-050-058-095>099-231200-
WEST-CENTRAL ILLINOIS

CITY           SKY/WX    TMP DP  RH WIND       PRES   REMARKS
QUINCY         CLEAR     71  68  90 N9        30.06S
GALESBURG*     CLEAR     68  66  93 N13G18    30.09R
MACOMB*        CLEAR     69  67  94 N8        30.08S
JACKSONVILLE*  CLEAR     75  73  93 N8        30.03F
PITTSFIELD*    CLEAR     74  70  86 N7        30.05S
$$

ILZ028>032-037-038-041>044-048-051>054-059>061-231200-
CENTRAL ILLINOIS

CITY           SKY/WX    TMP DP  RH WIND       PRES   REMARKS
PONTIAC        CLEAR     66  64  94 N10G16    30.07R
BLOOMINGTON    PTCLDY    69  65  87 NE14      30.05S
DECATUR        PTCLDY    79  73  83 N8        30.00  FOG     HX  82
PEORIA         CLEAR     75  65  70 NE10      30.06R
LACON*         PTCLDY    69  62  79 NE13      30.08R
LINCOLN*       CLOUDY    75  71  88 N8        29.99S
SPRINGFIELD    PTCLDY    76  73  91 N12       30.01S
TAYLORVILLE    PTCLDY    72  72 100 N6        29.99S FOG
$$

ILZ033-039-045-046-055>057-062-063-231200-
EAST-CENTRAL ILLINOIS

CITY           SKY/WX    TMP DP  RH WIND       PRES   REMARKS
CHAMPAIGN      MOCLDY    74  70  87 N17G23    30.01R
RANTOUL*       PTCLDY    71  65  80 N22       30.03R
MATTOON        MOCLDY    74  69  85 CALM      29.99R
PARIS*           N/A     71  69  95 CALM      29.99S FOG
$$

ILZ079-100>102-231200-
SOUTHWEST ILLINOIS

CITY           SKY/WX    TMP DP  RH WIND       PRES   REMARKS
ALTON          PTCLDY    75  75 100 NW7       29.99F
BELLEVILLE     PTCLDY    74  72  93 CALM      29.97F
CAHOKIA*       PTCLDY    76  72  87 SW3       29.98F
SPARTA*        MOCLDY    75  68  78 SW5       30.00F THUNDER
$$

ILZ064>066-069>071-074>076-080>082-084>086-088>090-092>094-231200-
SOUTH-CENTRAL ILLINOIS

CITY           SKY/WX    TMP DP  RH WIND       PRES   REMARKS
CARBONDALE     CLOUDY    75  67  76 SW8       30.00F
CAIRO*         PTCLDY    74  70  88 SW3       30.03R
MARION         CLOUDY    75  70  83 S9        30.01F
MT. VERNON     CLOUDY    73  66  78 SW6       30.00F
CENTRALIA*     MOCLDY    74  67  78 SW3       29.98F
SALEM*         MOCLDY    76  71  86 CALM        N/A
METROPOLIS*    PTCLDY    68  67  96 CALM      30.03S FOG
$$

ILZ067-068-072-073-078-083-087-091-231200-
SOUTHEAST ILLINOIS

CITY           SKY/WX    TMP DP  RH WIND       PRES   REMARKS
FLORA*         CLEAR     73  69  87 NE3       30.00R THUNDER
FAIRFIELD*     MOCLDY    73  72  94 S5        29.99S
HARRISBURG*    PTCLDY    69  69 100 S3        30.02F FOG
ROBINSON*      TSTM      73  72  94 SW13G21   30.02R
CARMI*         PTCLDY    68  67  99 S6        30.00F FOG
$$

ABBREVIATIONS USED IN REMARKS
   TC - TEMPERATURE IN CELSIUS
  WCI - WIND CHILL INDEX
   HX - HEAT INDEX
  VSB - VISIBILITY
$$




USA.gov is the U.S. government's official web portal to all federal, state and local government web resources and services.